Weather History for Big Piney, WY

Change the Weather History Date:

Saturday, April 6, 2013

  Actual Average Record
Temperature  
Mean Temperature 36 °F 35 °F  
Max Temperature 51 °F 50 °F 61 °F (1977)
Min Temperature 21 °F 20 °F 8 °F (1983)
Degree Days  
Heating Degree Days 29 30  
Month to date heating degree days 155 186  
Since 1 July heating degree days 8137 8881  
Cooling Degree Days 0 0  
Month to date cooling degree days 0 0  
Year to date cooling degree days 0 0  
Moisture  
Dew Point 26 °F    
Average Humidity 71    
Maximum Humidity 96    
Minimum Humidity 46    
Precipitation  
Precipitation T in 0.02 in 0.02 in (2010)
Month to date precipitation 0.02 0.10  
Year to date precipitation 0.21 1.20  
Sea Level Pressure  
Sea Level Pressure 29.95 in    
Wind  
Wind Speed 5 mph (NNW)    
Max Wind Speed 25 mph    
Max Gust Speed 31 mph    
Visibility 10 miles    
Events Rain    
T = Trace of Precipitation, MM = Missing Value Source: NWS Daily Summary

Daily Weather History Graph

Daily Weather History Graph

Search for Another Location

Airport:

Trip Planner

Search our weather history database for the weather conditions in past years. The results will help you decide how hot, cold, wet, or windy it might be!

Date:

Astronomy

Apr. 06, 2013 Rise Set
Actual Time 6:53 AM MDT 7:52 PM MDT
Civil Twilight 6:24 AM MDT 8:21 PM MDT
Nautical Twilight 5:50 AM MDT 8:55 PM MDT
Astronomical Twilight 5:15 AM MDT 9:31 PM MDT
Moon 4:44 AM MDT (4/6) 4:20 PM MDT (4/6)
Length of Visible Light 13h 56m
Length of Day
12h 58m
Waning Crescent, 14% of the Moon is Illuminated
Apr 6
Waning Crescent
Apr 10
New
Apr 18
First Quarter
Apr 25
Full
May 2
Last Quarter

Hourly Weather History & Observations

Time (MDT) Temp. Windchill Dew Point Humidity Pressure Visibility Wind Dir Wind Speed Gust Speed Precip Events Conditions
12:53 AM 27.0 °F - 24.1 °F 89% 30.01 in 10.0 mi Calm Calm - N/A   Mostly Cloudy
1:53 AM 23.0 °F - 21.0 °F 92% 30.00 in 10.0 mi Calm Calm - N/A   Clear
2:53 AM 23.0 °F 18.4 °F 19.9 °F 88% 29.96 in 10.0 mi Variable 3.5 mph - N/A   Clear
3:53 AM 23.0 °F 17.0 °F 19.9 °F 88% 29.98 in 10.0 mi NNW 4.6 mph - N/A   Clear
4:53 AM 24.1 °F 16.0 °F 21.9 °F 91% 29.96 in 10.0 mi East 6.9 mph - N/A   Clear
5:53 AM 24.1 °F 19.7 °F 21.9 °F 91% 29.98 in 10.0 mi ENE 3.5 mph - N/A   Clear
6:53 AM 25.0 °F - 21.9 °F 88% 29.98 in 10.0 mi Calm Calm - N/A   Mostly Cloudy
7:53 AM 27.0 °F 23.0 °F 24.1 °F 89% 30.00 in 10.0 mi ENE 3.5 mph - N/A   Mostly Cloudy
8:53 AM 30.0 °F - 27.0 °F 88% 30.01 in 10.0 mi Calm Calm - N/A   Mostly Cloudy
9:53 AM 35.1 °F - 28.0 °F 76% 30.00 in 10.0 mi Calm Calm - N/A   Overcast
10:53 AM 43.0 °F 39.5 °F 27.0 °F 53% 29.96 in 10.0 mi Variable 5.8 mph - N/A   Overcast
11:53 AM 45.0 °F 43.5 °F 26.1 °F 48% 29.96 in 10.0 mi Variable 3.5 mph - N/A   Mostly Cloudy
12:53 PM 44.1 °F 42.5 °F 27.0 °F 51% 29.93 in 8.0 mi Variable 3.5 mph - 0.00 in Rain Light Rain
1:53 PM 50.0 °F - 27.0 °F 41% 29.91 in 10.0 mi WNW 16.1 mph - 0.00 in   Overcast
2:53 PM 48.9 °F - 28.0 °F 44% 29.90 in 10.0 mi West 15.0 mph - N/A   Scattered Clouds
3:53 PM 42.1 °F 34.9 °F 33.1 °F 70% 29.94 in 10.0 mi NW 13.8 mph - 0.00 in   Overcast
4:53 PM 44.1 °F 38.1 °F 30.9 °F 60% 29.93 in 10.0 mi WNW 11.5 mph 19.6 mph N/A   Mostly Cloudy
5:53 PM 42.1 °F 40.2 °F 32.0 °F 67% 29.94 in 10.0 mi NW 3.5 mph - N/A   Overcast
6:53 PM 44.1 °F 42.5 °F 30.9 °F 60% 29.91 in 10.0 mi Variable 3.5 mph - N/A   Mostly Cloudy
7:53 PM 39.0 °F 34.8 °F 27.0 °F 62% 29.93 in 10.0 mi North 5.8 mph - N/A   Clear
8:53 PM 37.9 °F 33.5 °F 26.1 °F 62% 29.94 in 10.0 mi NNW 5.8 mph - N/A   Mostly Cloudy
9:53 PM 37.0 °F - 25.0 °F 62% 29.92 in 10.0 mi Calm Calm - N/A   Partly Cloudy
10:53 PM 35.1 °F 30.1 °F 27.0 °F 72% 29.88 in 10.0 mi East 5.8 mph - N/A   Overcast
11:53 PM 33.1 °F - 26.1 °F 75% 29.86 in 10.0 mi Calm Calm - N/A   Scattered Clouds